TimeEST,TemperatureF,Dew PointF,Humidity,Sea Level PressureIn,VisibilityMPH,Wind Direction,Wind SpeedMPH,Gust SpeedMPH,PrecipitationIn,Events,Conditions,WindDirDegrees,DateUTC
12:15 AM,24.8,17.6,74,30.36,10.0,Calm,Calm,-,N/A,,Clear,0,2012-11-29 05:15:00
12:35 AM,26.6,21.2,80,30.36,10.0,Calm,Calm,-,N/A,,Clear,0,2012-11-29 05:35:00
12:55 AM,26.6,19.4,74,30.37,10.0,Calm,Calm,-,N/A,,Clear,0,2012-11-29 05:55:00
1:15 AM,26.6,19.4,74,30.37,10.0,Calm,Calm,-,N/A,,Clear,0,2012-11-29 06:15:00
1:35 AM,26.6,19.4,74,30.37,10.0,Calm,Calm,-,N/A,,Clear,0,2012-11-29 06:35:00
1:55 AM,24.8,19.4,80,30.37,10.0,Calm,Calm,-,N/A,,Clear,0,2012-11-29 06:55:00
2:15 AM,26.6,19.4,74,30.37,10.0,Calm,Calm,-,N/A,,Clear,0,2012-11-29 07:15:00
2:35 AM,23.0,21.2,93,30.38,10.0,Calm,Calm,-,N/A,,Clear,0,2012-11-29 07:35:00
2:55 AM,24.8,21.2,86,30.39,10.0,SW,3.5,-,N/A,,Clear,220,2012-11-29 07:55:00
3:15 AM,26.6,17.6,69,30.38,10.0,Calm,Calm,-,N/A,,Clear,0,2012-11-29 08:15:00
3:35 AM,23.0,19.4,86,30.39,10.0,Calm,Calm,-,N/A,,Clear,0,2012-11-29 08:35:00
3:55 AM,21.2,19.4,93,30.38,10.0,Calm,Calm,-,N/A,,Clear,0,2012-11-29 08:55:00
4:35 AM,21.2,19.4,93,30.38,10.0,Calm,Calm,-,N/A,,Clear,0,2012-11-29 09:35:00
4:55 AM,21.2,19.4,93,30.38,10.0,Calm,Calm,-,N/A,,Clear,0,2012-11-29 09:55:00
5:15 AM,21.2,19.4,93,30.40,10.0,Calm,Calm,-,N/A,,Clear,0,2012-11-29 10:15:00
5:35 AM,21.2,19.4,93,30.40,10.0,Calm,Calm,-,N/A,,Clear,0,2012-11-29 10:35:00
5:55 AM,24.8,21.2,86,30.41,10.0,Calm,Calm,-,N/A,,Clear,0,2012-11-29 10:55:00
6:15 AM,21.2,19.4,93,30.42,10.0,Calm,Calm,-,N/A,,Clear,0,2012-11-29 11:15:00
6:35 AM,21.2,19.4,93,30.42,10.0,Calm,Calm,-,N/A,,Clear,0,2012-11-29 11:35:00
6:55 AM,19.4,17.6,93,30.42,10.0,Calm,Calm,-,N/A,,Clear,0,2012-11-29 11:55:00
7:15 AM,21.2,19.4,93,30.42,10.0,Calm,Calm,-,N/A,,Clear,0,2012-11-29 12:15:00
7:35 AM,24.8,21.2,86,30.43,10.0,Calm,Calm,-,N/A,,Clear,0,2012-11-29 12:35:00
7:55 AM,24.8,21.2,86,30.43,10.0,Calm,Calm,-,N/A,,Clear,0,2012-11-29 12:55:00
8:15 AM,26.6,23.0,86,30.43,10.0,Calm,Calm,-,N/A,,Clear,0,2012-11-29 13:15:00
8:35 AM,28.4,24.8,86,30.44,10.0,Calm,Calm,-,N/A,,Clear,0,2012-11-29 13:35:00
8:55 AM,30.2,24.8,80,30.44,10.0,Calm,Calm,-,N/A,,Clear,0,2012-11-29 13:55:00
9:15 AM,35.6,24.8,65,30.44,10.0,Calm,Calm,-,N/A,,Clear,0,2012-11-29 14:15:00
9:35 AM,37.4,24.8,60,30.45,10.0,Calm,Calm,-,N/A,,Clear,0,2012-11-29 14:35:00
9:55 AM,39.2,23.0,52,30.45,10.0,Calm,Calm,-,N/A,,Clear,0,2012-11-29 14:55:00
10:15 AM,42.8,24.8,49,30.46,10.0,Calm,Calm,-,N/A,,Clear,0,2012-11-29 15:15:00
10:35 AM,44.6,19.4,37,30.46,10.0,South,4.6,-,N/A,,Clear,190,2012-11-29 15:35:00
11:15 AM,46.4,24.8,43,30.45,10.0,South,6.9,-,N/A,,Clear,180,2012-11-29 16:15:00
11:35 AM,46.4,24.8,43,30.44,10.0,South,6.9,-,N/A,,Clear,190,2012-11-29 16:35:00
11:55 AM,48.2,23.0,37,30.42,10.0,SSW,3.5,-,N/A,,Clear,210,2012-11-29 16:55:00
12:15 PM,48.2,21.2,34,30.41,10.0,SSW,5.8,-,N/A,,Clear,200,2012-11-29 17:15:00
12:35 PM,48.2,21.2,34,30.41,10.0,SSE,3.5,-,N/A,,Clear,150,2012-11-29 17:35:00
12:55 PM,50.0,21.2,32,30.40,10.0,South,3.5,-,N/A,,Clear,190,2012-11-29 17:55:00
1:15 PM,51.8,19.4,28,30.39,10.0,SSW,4.6,-,N/A,,Clear,200,2012-11-29 18:15:00
1:35 PM,51.8,19.4,28,30.38,10.0,South,3.5,-,N/A,,Clear,190,2012-11-29 18:35:00
1:55 PM,51.8,19.4,28,30.36,10.0,Calm,Calm,-,N/A,,Clear,0,2012-11-29 18:55:00
2:15 PM,51.8,19.4,28,30.36,10.0,SSW,3.5,-,N/A,,Clear,200,2012-11-29 19:15:00
2:35 PM,51.8,17.6,26,30.35,10.0,SW,5.8,-,N/A,,Clear,230,2012-11-29 19:35:00
2:55 PM,51.8,15.8,24,30.35,10.0,South,3.5,-,N/A,,Clear,170,2012-11-29 19:55:00
3:15 PM,51.8,14.0,22,30.35,10.0,SSW,6.9,-,N/A,,Clear,200,2012-11-29 20:15:00
3:35 PM,51.8,15.8,24,30.34,10.0,SSW,5.8,-,N/A,,Clear,200,2012-11-29 20:35:00
3:55 PM,51.8,14.0,22,30.34,10.0,SW,4.6,-,N/A,,Clear,220,2012-11-29 20:55:00
4:15 PM,51.8,15.8,24,30.35,10.0,Calm,Calm,-,N/A,,Clear,0,2012-11-29 21:15:00
4:35 PM,48.2,17.6,30,30.35,10.0,SW,3.5,-,N/A,,Clear,230,2012-11-29 21:35:00
4:55 PM,48.2,15.8,27,30.35,10.0,Calm,Calm,-,N/A,,Clear,0,2012-11-29 21:55:00
5:15 PM,46.4,17.6,32,30.35,10.0,Calm,Calm,-,N/A,,Clear,0,2012-11-29 22:15:00
5:35 PM,46.4,17.6,32,30.35,10.0,Calm,Calm,-,N/A,,Clear,0,2012-11-29 22:35:00
5:55 PM,46.4,17.6,32,30.35,10.0,Calm,Calm,-,N/A,,Clear,0,2012-11-29 22:55:00
6:15 PM,42.8,19.4,39,30.35,10.0,Calm,Calm,-,N/A,,Clear,0,2012-11-29 23:15:00
6:35 PM,39.2,21.2,49,30.35,10.0,Calm,Calm,-,N/A,,Clear,0,2012-11-29 23:35:00
6:55 PM,41.0,19.4,42,30.36,10.0,Calm,Calm,-,N/A,,Clear,0,2012-11-29 23:55:00
7:15 PM,42.8,19.4,39,30.36,10.0,SW,3.5,-,N/A,,Clear,220,2012-11-30 00:15:00
7:35 PM,33.8,21.2,60,30.36,10.0,Calm,Calm,-,N/A,,Clear,0,2012-11-30 00:35:00
7:55 PM,39.2,21.2,49,30.36,10.0,Calm,Calm,-,N/A,,Clear,0,2012-11-30 00:55:00
8:15 PM,39.2,21.2,49,30.37,10.0,Calm,Calm,-,N/A,,Clear,0,2012-11-30 01:15:00
8:35 PM,37.4,21.2,52,30.37,10.0,Calm,Calm,-,N/A,,Clear,0,2012-11-30 01:35:00
8:55 PM,35.6,23.0,60,30.37,10.0,Calm,Calm,-,N/A,,Clear,0,2012-11-30 01:55:00
9:15 PM,37.4,23.0,56,30.37,10.0,Calm,Calm,-,N/A,,Clear,0,2012-11-30 02:15:00
9:35 PM,28.4,21.2,74,30.37,10.0,Calm,Calm,-,N/A,,Clear,0,2012-11-30 02:35:00
9:55 PM,28.4,21.2,74,30.36,10.0,Calm,Calm,-,N/A,,Clear,0,2012-11-30 02:55:00
10:15 PM,32.0,23.0,69,30.36,10.0,Calm,Calm,-,N/A,,Clear,0,2012-11-30 03:15:00
10:35 PM,30.2,21.2,69,30.36,10.0,Calm,Calm,-,N/A,,Clear,0,2012-11-30 03:35:00
10:55 PM,30.2,21.2,69,30.35,10.0,Calm,Calm,-,N/A,,Clear,0,2012-11-30 03:55:00
11:15 PM,28.4,21.2,74,30.35,10.0,Calm,Calm,-,N/A,,Clear,0,2012-11-30 04:15:00
11:35 PM,26.6,23.0,86,30.35,10.0,Calm,Calm,-,N/A,,Clear,0,2012-11-30 04:35:00
11:55 PM,28.4,24.8,86,30.34,10.0,Calm,Calm,-,N/A,,Clear,0,2012-11-30 04:55:00